TimeEDT,TemperatureF,Dew PointF,Humidity,Sea Level PressureIn,VisibilityMPH,Wind Direction,Wind SpeedMPH,Gust SpeedMPH,PrecipitationIn,Events,Conditions,WindDirDegrees,DateUTC
12:56 AM,79.0,71.1,77,29.74,10.0,SW,6.9,-,N/A,,Mostly Cloudy,220,2013-06-28 04:56:00
1:56 AM,79.0,70.0,74,29.74,10.0,SW,5.8,-,N/A,,Clear,230,2013-06-28 05:56:00
2:56 AM,79.0,68.0,69,29.74,10.0,West,13.8,-,N/A,,Clear,270,2013-06-28 06:56:00
3:56 AM,78.1,66.0,66,29.73,10.0,West,10.4,-,N/A,,Scattered Clouds,280,2013-06-28 07:56:00
4:56 AM,77.0,66.0,69,29.72,10.0,WNW,10.4,19.6,N/A,,Scattered Clouds,290,2013-06-28 08:56:00
5:56 AM,73.9,66.0,76,29.71,10.0,West,8.1,-,N/A,,Partly Cloudy,280,2013-06-28 09:56:00
6:56 AM,75.0,66.0,73,29.72,10.0,Calm,Calm,-,N/A,,Scattered Clouds,0,2013-06-28 10:56:00
7:56 AM,78.1,66.9,68,29.72,10.0,West,5.8,-,N/A,,Mostly Cloudy,280,2013-06-28 11:56:00
8:56 AM,79.0,66.0,64,29.72,10.0,West,8.1,-,N/A,,Mostly Cloudy,260,2013-06-28 12:56:00
9:56 AM,81.0,66.0,60,29.72,10.0,WNW,11.5,-,N/A,,Mostly Cloudy,290,2013-06-28 13:56:00
10:56 AM,82.9,66.0,56,29.71,10.0,West,10.4,-,N/A,,Mostly Cloudy,280,2013-06-28 14:56:00
11:56 AM,84.0,66.0,55,29.71,10.0,WNW,9.2,-,N/A,,Mostly Cloudy,290,2013-06-28 15:56:00
12:56 PM,87.1,64.0,46,29.70,10.0,WNW,12.7,18.4,N/A,,Scattered Clouds,300,2013-06-28 16:56:00
1:56 PM,88.0,57.0,35,29.68,10.0,NW,21.9,27.6,N/A,,Partly Cloudy,310,2013-06-28 17:56:00
2:56 PM,87.1,57.9,37,29.66,10.0,NW,16.1,25.3,N/A,,Scattered Clouds,310,2013-06-28 18:56:00
3:56 PM,88.0,59.0,37,29.64,10.0,WNW,16.1,25.3,N/A,,Scattered Clouds,290,2013-06-28 19:56:00
4:56 PM,88.0,57.0,35,29.62,10.0,WNW,15.0,-,N/A,,Partly Cloudy,300,2013-06-28 20:56:00
5:56 PM,88.0,57.9,36,29.62,10.0,West,15.0,-,N/A,,Partly Cloudy,280,2013-06-28 21:56:00
6:56 PM,87.1,60.1,40,29.61,10.0,West,17.3,23.0,N/A,,Scattered Clouds,280,2013-06-28 22:56:00
7:56 PM,84.9,59.0,41,29.62,10.0,WNW,16.1,21.9,N/A,,Partly Cloudy,290,2013-06-28 23:56:00
8:56 PM,82.0,55.9,41,29.62,10.0,WNW,10.4,-,N/A,,Scattered Clouds,300,2013-06-29 00:56:00
9:56 PM,77.0,57.9,52,29.63,10.0,WNW,6.9,-,N/A,,Scattered Clouds,290,2013-06-29 01:56:00
10:56 PM,77.0,57.9,52,29.65,10.0,WNW,6.9,-,N/A,,Scattered Clouds,300,2013-06-29 02:56:00
11:56 PM,73.0,59.0,61,29.64,10.0,WNW,6.9,-,N/A,,Scattered Clouds,290,2013-06-29 03:56:00